VK1ET-13 Weather Reports


time (UTC)temp
C
wind
direction
speed
KPH
gust
KPH
rain 1hr
cm
rain 24hr
cm
rain mn
cm
humidity
%
barometer
mb
20260901082033 17 320 3.2 6.4 0.00 0.00 0.00 62 1019.2
20260901081033 17 299 4.8 16.1 0.00 0.00 0.00 60 1019.0
20260901080021 17 307 6.4 11.3 0.00 0.00 0.00 59 1019.0
20260901075023 18 305 8.0 16.1 0.00 0.00 0.00 58 1019.0
20260901074026 18 290 6.4 16.1 0.00 0.00 0.00 56 1019.0
20260901073031 18 304 8.0 17.7 0.00 0.00 0.00 55 1019.0
20260901072037 18 305 8.0 17.7 0.00 0.00 0.00 53 1019.1
20260901071037 19 282 11.3 17.7 0.00 0.00 0.00 51 1018.9
20260901070533 19 319 12.9 19.3 0.00 0.00 0.00 51 1019.0
20260901064531 20 297 9.7 19.3 0.00 0.00 0.00 48 1019.1
20260901063025 20 288 8.0 17.7 0.00 0.00 0.00 50 1019.3
20260901062032 20 284 9.7 14.5 0.00 0.00 0.00 49 1019.4
20260901060519 20 291 9.7 27.4 0.00 0.00 0.00 48 1019.4
20260901055523 20 282 9.7 24.1 0.00 0.00 0.00 48 1019.4
20260901054527 20 291 14.5 27.4 0.00 0.00 0.00 47 1019.4
20260901053538 20 289 9.7 17.7 0.00 0.00 0.00 48 1019.5
20260901052547 20 266 9.7 17.7 0.00 0.00 0.00 47 1019.5
20260901051520 20 278 17.7 27.4 0.00 0.00 0.00 46 1019.6
20260901051029 20 328 19.3 25.7 0.00 0.00 0.00 45 1019.6
20260901050951 20 292 16.1 33.8 0.00 0.00 0.00 46 1019.9
20260901043027 21 256 9.7 14.5 0.00 0.00 0.00 42 1019.8
20260901042952 20 268 12.9 24.1 0.00 0.00 0.00 44 1019.9
20260901033521 20 292 16.1 30.6 0.00 0.00 0.00 42 1020.8
20260901032524 20 290 17.7 29.0 0.00 0.00 0.00 42 1020.8
20260901031531 20 273 17.7 27.4 0.00 0.00 0.00 43 1021.0
20260901030031 20 287 16.1 30.6 0.00 0.00 0.00 43 1021.4
20260901025018 20 274 14.5 33.8 0.00 0.00 0.00 42 1021.5
20260901024025 20 278 12.9 29.0 0.00 0.00 0.00 43 1021.6
20260901023032 20 283 16.1 32.2 0.00 0.00 0.00 41 1021.9
20260901022018 19 270 17.7 33.8 0.00 0.00 0.00 44 1021.9
20260901021025 20 255 14.5 27.4 0.00 0.00 0.00 46 1022.1
20260901020045 20 297 14.5 32.2 0.00 0.00 0.00 47 1022.4
20260901015018 19 295 16.1 27.4 0.00 0.00 0.00 53 1022.6
20260901014025 18 323 14.5 30.6 0.00 0.00 0.00 58 1022.7
20260901013032 18 317 12.9 24.1 0.00 0.00 0.00 59 1022.7
20260901012019 18 317 12.9 29.0 0.00 0.00 0.00 60 1023.1
20260901011027 18 329 11.3 24.1 0.00 0.00 0.00 62 1023.2
20260901010032 17 319 11.3 22.5 0.00 0.00 0.00 63 1023.4
20260901005016 18 314 8.0 16.1 0.00 0.00 0.00 63 1023.5
20260901004023 17 330 8.0 17.7 0.00 0.00 0.00 64 1023.7
20260901003031 17 323 8.0 17.7 0.00 0.00 0.00 65 1023.8
20260901002036 16 343 6.4 14.5 0.00 0.00 0.00 66 1023.8
20260901001021 16 329 8.0 19.3 0.00 0.00 0.00 67 1024.0
20260901000030 16 324 8.0 17.7 0.00 0.00 0.00 69 1024.2
20260831235043 15 314 6.4 17.7 0.00 0.00 0.00 70 1024.2
20260831234022 15 328 8.0 14.5 0.00 0.00 0.00 71 1024.5
20260831233030 15 345 4.8 8.0 0.00 0.00 0.00 73 1024.6
20260831232018 13 357 4.8 9.7 0.00 0.00 0.00 75 1024.8
20260831231024 13 5 4.8 9.7 0.00 0.00 0.00 77 1024.9
20260831230031 12 4 4.8 9.7 0.00 0.00 0.00 79 1025.1
20260831225018 12 2 4.8 9.7 0.00 0.00 0.00 80 1025.2
20260831224026 12 354 6.4 9.7 0.00 0.00 0.00 81 1025.3
20260831223034 11 4 3.2 8.0 0.00 0.00 0.00 83 1025.3
20260831222021 10 14 3.2 8.0 0.00 0.00 0.00 86 1025.3
20260831221028 10 3 4.8 8.0 0.00 0.00 0.00 87 1025.2
20260831220043 10 358 3.2 6.4 0.00 0.00 0.00 87 1025.2
20260831215023 9 291 1.6 4.8 0.00 0.00 0.00 92 1025.3
20260831214038 8 88 1.6 3.2 0.00 0.00 0.00 97 1025.2
20260831213032 8 332 0.0 3.2 0.00 0.00 0.00 97 1025.5
20260831212026 8 2 1.6 4.8 0.00 0.00 0.00 98 1025.3
20260831211033 8 213 0.0 3.2 0.00 0.00 0.00 97 1025.3
20260831210021 8 308 0.0 3.2 0.00 0.00 0.00 97 1025.3
20260831205028 7 289 0.0 3.2 0.00 0.00 0.00 96 1025.2
20260831204050 7 150 0.0 3.2 0.00 0.00 0.00 97 1025.1
20260831203023 6 0.0 3.2 0.00 0.00 0.00 97 1025.2
20260831202039 6 144 1.6 3.2 0.00 0.00 0.00 97 1025.2
20260831201018 7 32 0.0 3.2 0.00 0.00 0.00 96 1025.2
20260831200026 7 299 0.0 3.2 0.00 0.00 0.00 96 1025.1
20260831195034 7 289 0.0 3.2 0.00 0.00 0.00 96 1025.1
20260831194022 7 162 0.0 3.2 0.00 0.00 0.00 97 1025.0
20260831193030 7 356 1.6 4.8 0.00 0.00 0.00 97 1025.1
20260831192017 7 352 1.6 3.2 0.00 0.00 0.00 96 1025.1
20260831191025 7 28 0.0 3.2 0.00 0.00 0.00 96 1025.1
20260831190053 7 166 3.2 6.4 0.00 0.00 0.00 96 1025.1
20260831185020 7 168 3.2 4.8 0.00 0.00 0.00 96 1025.2
20260831184034 7 176 3.2 4.8 0.00 0.00 0.00 96 1025.3
20260831183036 8 172 1.6 3.2 0.00 0.00 0.00 96 1025.2
20260831182030 8 113 1.6 3.2 0.00 0.00 0.00 96 1025.3
20260831181039 8 143 1.6 3.2 0.00 0.00 0.00 96 1025.3
20260831180027 8 118 1.6 3.2 0.00 0.00 0.00 95 1025.4
20260831175029 8 37 1.6 4.8 0.00 0.00 0.00 95 1025.7
20260831174024 8 82 1.6 3.2 0.00 0.00 0.00 95 1025.6
20260831173026 8 51 1.6 4.8 0.00 0.00 0.00 95 1025.7
20260831172035 8 93 1.6 4.8 0.00 0.00 0.00 94 1025.6
20260831171024 8 172 1.6 3.2 0.00 0.00 0.00 94 1025.8
20260831170032 8 147 1.6 4.8 0.00 0.00 0.00 94 1025.8
20260831165019 8 174 1.6 4.8 0.00 0.00 0.00 94 1025.9
20260831164028 8 181 1.6 3.2 0.00 0.00 0.00 94 1026.1
20260831163016 8 176 3.2 4.8 0.00 0.00 0.00 93 1026.2
20260831162025 9 180 3.2 4.8 0.00 0.00 0.00 92 1026.3
20260831161032 9 182 1.6 4.8 0.00 0.00 0.00 89 1026.4
20260831160021 10 177 1.6 4.8 0.00 0.00 0.00 89 1026.6
20260831155027 10 180 1.6 3.2 0.00 0.00 0.00 88 1026.7
20260831154035 10 180 3.2 6.4 0.00 0.00 0.00 89 1026.7
20260831153022 10 181 3.2 6.4 0.00 0.00 0.00 91 1027.0
20260831152038 10 178 1.6 4.8 0.00 0.00 0.00 90 1026.9
20260831151018 10 180 3.2 6.4 0.00 0.00 0.00 90 1027.1
20260831150025 10 123 1.6 3.2 0.00 0.00 0.00 89 1027.2
20260831145033 10 178 4.8 6.4 0.00 0.00 0.00 91 1027.2
20260831144020 10 178 4.8 8.0 0.00 0.00 0.00 92 1027.4
20260831143037 10 178 3.2 8.0 0.00 0.00 0.00 90 1027.3
20260831142017 10 156 1.6 6.4 0.00 0.00 0.00 90 1027.4
20260831141022 11 136 1.6 4.8 0.00 0.00 0.00 86 1027.4
20260831140029 11 183 3.2 6.4 0.00 0.00 0.00 86 1027.3
20260831134026 12 175 3.2 6.4 0.00 0.00 0.00 84 1027.4
20260831133032 12 170 3.2 6.4 0.00 0.00 0.00 82 1027.5
20260831132024 12 146 3.2 6.4 0.00 0.00 0.00 81 1027.6
20260831131033 12 117 3.2 9.7 0.00 0.00 0.00 84 1027.8
20260831130030 11 18 0.0 4.8 0.00 0.00 0.00 83 1028.0
20260831125018 13 4 1.6 3.2 0.00 0.00 0.00 77 1028.0
20260831124024 13 0.0 1.6 0.00 0.00 0.00 78 1028.1
20260831123535 13 214 0.0 3.2 0.00 0.00 0.00 77 1028.1
20260831122543 13 0.0 1.6 0.00 0.00 0.00 76 1028.1
20260831121521 13 0.0 0.0 0.00 0.00 0.00 75 1028.2
20260831120529 14 198 0.0 1.6 0.00 0.00 0.00 74 1028.2
20260831115536 15 0.0 0.0 0.00 0.00 0.00 72 1028.3
20260831114529 15 0.0 0.0 0.00 0.00 0.00 71 1028.3
20260831113537 15 225 1.6 4.8 0.00 0.00 0.00 71 1028.4
20260831112518 15 0.0 0.0 0.00 0.00 0.00 71 1028.5
20260831111525 15 0.0 0.0 0.00 0.00 0.00 73 1028.5